[[{"header":{"parameterUnit":"m.s-1","parameterCategory":1,"la1":30.2991,"la2":30.254,"lo1":-89.0895,"lo2":-89.0444,"dy":0.0017,"dx":0.0017,"nx":28,"ny":28,"refTime":"2024-05-06T09:00:00:Z","depth":0,"parameterNumber":2,"parameterNumberName":"U-component_of_WINDS"},"data":[0,0,0,0,0,0,0,0,0,0,0,0,0,0,0,0,0,0,0,0,0,0,0,0,0,0,0,0,0,0,0,0,0,0,0,0,0,0,0,0,0,0,0,0,0,0,0,0,0,0,0,0,0,0,0,0,0,0,-2.5432,-2.5432,0,-2.5446,-2.5446,-2.5447,-2.5417,-2.5416,-2.5415,-2.5415,-2.543,-2.5431,-2.5432,0,0,0,0,0,0,0,0,0,0,0,0,0,-2.5381,-2.5382,-2.5432,-2.5432,-2.5432,-2.5446,-2.5446,-2.5447,-2.5418,-2.5416,-2.5415,-2.5414,-2.5429,-2.5431,-2.5433,0,0,0,0,0,0,0,0,0,0,0,0,0,-2.54,-2.5382,-2.5432,-2.5419,-2.5418,-2.5446,-2.5446,-2.5447,-2.5418,-2.5416,-2.5415,-2.5414,-2.5429,-2.5431,-2.5433,-2.5473,0,0,-2.5439,-2.544,0,0,0,0,0,0,0,0,-2.5399,-2.5402,-2.5421,-2.542,-2.5419,-2.5429,-2.5434,-2.5456,-2.5418,-2.5418,-2.5415,-2.5413,-2.5431,-2.5432,-2.5438,-2.5474,-2.5475,-2.5439,-2.544,-2.5441,-2.5441,0,0,0,0,0,0,0,-2.5397,-2.5401,-2.5438,-2.5421,-2.542,-2.5414,-2.5415,-2.5438,-2.5432,-2.5418,-2.5416,-2.5418,-2.543,-2.5436,-2.5438,-2.5475,-2.5439,-2.5441,-2.5442,-2.5443,-2.5545,-2.5547,0,0,0,0,0,0,-2.5397,-2.54,-2.5437,-2.5438,-2.5405,-2.5416,-2.5417,-2.5427,-2.5432,-2.5431,-2.5419,-2.5417,-2.5434,-2.5436,-2.5439,-2.5486,-2.5441,-2.5443,-2.5444,-2.5544,-2.5546,-2.5547,0,0,0,0,0,0,-2.5396,-2.5401,-2.5436,-2.5418,-2.5422,-2.5418,-2.543,-2.5428,-2.5434,-2.5433,-2.5432,-2.5427,-2.5433,-2.5436,-2.5465,-2.5487,-2.5444,-2.5445,-2.5542,-2.5544,-2.5547,-2.5582,0,0,0,0,0,0,-2.5395,-2.5401,-2.5416,-2.5419,-2.5423,-2.5462,-2.5431,-2.5429,-2.5438,-2.5435,-2.544,-2.5439,-2.5432,-2.5462,-2.5467,-2.5488,-2.5447,-2.554,-2.5543,-2.5546,-2.5579,-2.5586,-2.5591,0,0,0,0,0,-2.5393,-2.5425,-2.5417,-2.5421,-2.5442,-2.5463,-2.5466,-2.5457,-2.544,-2.5455,-2.5454,-2.5439,-2.5484,-2.5466,-2.5471,-2.5493,-2.5539,-2.5542,-2.5546,-2.5577,-2.5584,-2.5591,0,0,0,0,0,0,-2.5425,-2.5426,-2.5416,-2.545,-2.5457,-2.5459,-2.5477,-2.5466,-2.5478,-2.5474,-2.5463,-2.5464,-2.5495,-2.5497,-2.5477,-2.5533,-2.5508,-2.5513,-2.553,-2.5538,-2.5543,-2.5542,-2.5448,0,0,0,0,0,-2.5436,-2.5453,-2.5453,-2.5483,-2.5487,-2.5482,-2.5491,-2.5483,-2.549,-2.5493,-2.5494,-2.5501,-2.5517,-2.5528,-2.5542,-2.558,-2.5581,-2.5598,-2.5604,-2.5609,-2.5613,-2.5633,-2.5641,-2.5559,-2.5559,-2.5559,0,0,-2.5459,-2.5461,-2.5473,-2.5489,-2.5494,-2.5512,-2.5484,-2.5505,-2.5518,-2.5496,-2.5523,-2.5524,-2.5532,-2.5566,-2.5581,-2.5568,-2.5636,-2.5613,-2.5617,-2.5618,-2.5637,-2.5645,-2.5652,-2.5561,-2.5561,-2.5561,0,0,-2.5509,-2.5513,-2.5538,-2.5544,-2.5551,-2.5547,-2.5553,-2.5557,-2.5557,-2.5584,-2.5568,-2.5584,-2.5612,-2.5618,-2.5625,-2.5679,-2.5665,-2.5684,-2.5715,-2.5734,-2.5741,-2.5746,-2.5765,-2.5772,-2.5688,-2.5688,-2.5688,0,-2.5536,-2.5563,-2.5553,-2.5574,-2.5582,-2.5563,-2.5589,-2.5595,-2.5607,-2.5613,-2.5599,-2.5633,-2.5637,-2.5672,-2.5685,-2.5691,-2.5698,-2.5683,-2.5741,-2.5746,-2.5751,-2.5769,-2.5776,-2.569,-2.569,-2.569,-2.569,0,-2.5596,-2.5615,-2.5634,-2.5646,-2.5656,-2.568,-2.5674,-2.5686,-2.5678,-2.5676,-2.5704,-2.5708,-2.5723,-2.5731,-2.5724,-2.5765,-2.5757,-2.5743,-2.5717,-2.5761,-2.5778,-2.5785,-2.5693,-2.5693,-2.5692,-2.5691,0,0,-2.5666,-2.5672,-2.5679,-2.5684,-2.5692,-2.5706,-2.5729,-2.5744,-2.5754,-2.5763,-2.5782,-2.5806,-2.5793,-2.58,-2.5794,-2.5811,-2.5853,-2.5794,-2.5794,-2.5804,-2.5899,-2.591,-2.5918,-2.5845,-2.5846,-2.5847,-2.5898,0,-2.5715,-2.5754,-2.5747,-2.5785,-2.5802,-2.5785,-2.5805,-2.5812,-2.5812,-2.5826,-2.5826,-2.5843,-2.5824,-2.5828,-2.5845,-2.5845,-2.5872,-2.5841,-2.5862,-2.5863,-2.586,-2.5926,-2.5938,-2.5985,-2.5905,-2.5906,-2.5907,0,-2.5778,-2.5789,-2.583,-2.5834,-2.5841,-2.5859,-2.5872,-2.5887,-2.5894,-2.5893,-2.5902,-2.5892,-2.5915,-2.5891,-2.5923,-2.5902,-2.5911,-2.5912,-2.5914,-2.5914,-2.5887,-2.5928,-2.6,-2.6007,-2.5917,-2.5916,-2.5915,0,-2.5824,-2.585,-2.5877,-2.5882,-2.5888,-2.5901,-2.5905,-2.5911,-2.592,-2.5932,-2.5938,-2.5952,-2.596,-2.5972,-2.5966,-2.5949,-2.5999,-2.5974,-2.5998,-2.5999,-2.6009,-2.6008,-2.6082,-2.6016,-2.6016,-2.6016,-2.6016,0,-2.588,-2.5905,-2.5898,-2.5914,-2.5942,-2.5934,-2.5962,-2.5963,-2.5969,-2.5986,-2.5972,-2.5989,-2.5981,-2.5996,-2.5992,-2.602,-2.6023,-2.6023,-2.6021,-2.6023,-2.6023,-2.6028,-2.6024,-2.6018,-2.6017,-2.6017,-2.6016,0,-2.5936,-2.5932,-2.596,-2.5964,-2.5966,-2.5986,-2.5989,-2.6005,-2.6004,-2.6026,-2.603,-2.6028,-2.6046,-2.6042,-2.6062,-2.6059,-2.6093,-2.6088,-2.609,-2.6089,-2.6113,-2.611,-2.6192,-2.6202,-2.613,-2.613,-2.6131,0,-2.5971,-2.599,-2.5996,-2.6006,-2.601,-2.6027,-2.6037,-2.6029,-2.604,-2.605,-2.6065,-2.6082,-2.6095,-2.6125,-2.6125,-2.614,-2.6135,-2.6162,-2.6137,-2.6139,-2.6134,-2.6133,-2.6135,-2.6167,-2.6168,-2.6169,-2.6169,0,-2.6035,-2.6032,-2.6046,-2.6059,-2.6071,-2.6082,-2.6091,-2.61,-2.6094,-2.6106,-2.6124,-2.6134,-2.6155,-2.6172,-2.6186,-2.619,-2.6178,-2.6177,-2.6184,-2.6186,-2.6186,-2.6186,-2.6103,-2.6175,-2.6175,-2.6174,-2.6174,-2.6174,-2.6081,-2.6097,-2.6103,-2.612,-2.6126,-2.6135,-2.615,-2.6151,-2.6165,-2.6181,-2.6176,-2.6197,-2.6205,-2.6222,-2.6228,-2.6244,-2.6234,-2.6243,-2.6245,-2.6247,-2.625,-2.6184,-2.6247,-2.6247,-2.6247,-2.6246,-2.6246,0,-2.6143,-2.6147,-2.6162,-2.6175,-2.6188,-2.6176,-2.6186,-2.6198,-2.6216,-2.6224,-2.6237,-2.6258,-2.6275,-2.6277,-2.6292,-2.6305,-2.63,-2.6309,-2.6308,-2.6309,-2.6259,-2.6251,-2.6313,-2.6313,-2.6313,-2.6313,-2.6313,-2.6313,-2.6177,-2.6203,-2.6201,-2.6231,-2.6234,-2.6254,-2.6261,-2.6269,-2.6275,-2.6299,-2.6313,-2.6314,-2.632,-2.6336,-2.6351,-2.6351,-2.6357,-2.6368,-2.6366,-2.6319,-2.6312,-2.6306,-2.6299,-2.637,-2.637,-2.6415,-2.6415,-2.6416]},{"header":{"parameterUnit":"m.s-1","parameterCategory":1,"la1":30.2991,"la2":30.254,"lo1":-89.0895,"lo2":-89.0444,"dy":0.0017,"dx":0.0017,"nx":28,"ny":28,"refTime":"2024-05-06T09:00:00:Z","depth":0,"parameterNumber":3,"parameterNumberName":"V-component_of_WINDS"},"data":[0,0,0,0,0,0,0,0,0,0,0,0,0,0,0,0,0,0,0,0,0,0,0,0,0,0,0,0,0,0,0,0,0,0,0,0,0,0,0,0,0,0,0,0,0,0,0,0,0,0,0,0,0,0,0,0,0,0,4.4679,4.468,0,4.4725,4.4725,4.4726,4.469,4.4688,4.4687,4.4685,4.473,4.4733,4.4736,0,0,0,0,0,0,0,0,0,0,0,0,0,4.456,4.4563,4.4679,4.468,4.4681,4.4725,4.4725,4.4726,4.469,4.4688,4.4686,4.4684,4.473,4.4733,4.4736,0,0,0,0,0,0,0,0,0,0,0,0,0,4.461,4.4564,4.4679,4.4668,4.4667,4.4725,4.4725,4.4726,4.469,4.4688,4.4686,4.4684,4.4729,4.4732,4.4736,4.4807,0,0,4.4748,4.475,0,0,0,0,0,0,0,0,4.4607,4.4614,4.4669,4.4669,4.4668,4.4699,4.47,4.4753,4.4691,4.4682,4.4685,4.4682,4.4722,4.4726,4.474,4.4809,4.4811,4.4749,4.4751,4.4753,4.4754,0,0,0,0,0,0,0,4.4603,4.4612,4.4697,4.467,4.4669,4.466,4.4665,4.471,4.4714,4.4682,4.468,4.4686,4.4721,4.4736,4.474,4.4811,4.4749,4.4752,4.4755,4.4756,4.4941,4.4943,0,0,0,0,0,0,4.4601,4.4609,4.4696,4.4699,4.4631,4.4664,4.4669,4.4692,4.4713,4.4715,4.4688,4.4684,4.473,4.4736,4.4742,4.4826,4.4753,4.4756,4.4759,4.4938,4.4941,4.4944,0,0,0,0,0,0,4.4599,4.4609,4.4694,4.4653,4.4663,4.4669,4.4694,4.4694,4.4709,4.4717,4.4718,4.4702,4.4729,4.4736,4.4791,4.4827,4.4758,4.4762,4.4935,4.4939,4.4943,4.4996,0,0,0,0,0,0,4.4596,4.4609,4.4636,4.4654,4.4666,4.4743,4.4696,4.4696,4.4716,4.4711,4.4731,4.4732,4.4728,4.4785,4.4795,4.4832,4.4765,4.4932,4.4937,4.4942,4.4991,4.5001,4.5009,0,0,0,0,0,4.4592,4.4649,4.4638,4.4648,4.47,4.4745,4.4752,4.4745,4.4719,4.4746,4.4752,4.4732,4.4822,4.4791,4.4802,4.484,4.493,4.4936,4.4941,4.4987,4.4999,4.5009,0,0,0,0,0,0,4.4634,4.4651,4.4639,4.4703,4.4723,4.4739,4.4773,4.4759,4.4786,4.4781,4.4771,4.4776,4.4834,4.4842,4.4808,4.491,4.4871,4.488,4.4902,4.4914,4.4923,4.492,4.4768,0,0,0,0,0,4.4651,4.4687,4.4699,4.4755,4.4766,4.4768,4.4787,4.4781,4.4801,4.4809,4.4818,4.4838,4.4871,4.4893,4.4923,4.4991,4.4995,4.5023,4.5032,4.504,4.5047,4.5084,4.5097,4.4963,4.4963,4.4963,0,0,4.4687,4.47,4.4723,4.4764,4.4779,4.4816,4.4775,4.4816,4.4843,4.4815,4.4867,4.4875,4.4896,4.4958,4.4986,4.4967,4.5085,4.5047,4.5053,4.5056,4.5091,4.5104,4.5115,4.4967,4.4966,4.4966,0,0,4.4771,4.4784,4.4833,4.4848,4.4871,4.4871,4.4883,4.4901,4.4905,4.4958,4.4937,4.4969,4.5026,4.5042,4.5058,4.5148,4.513,4.5158,4.5207,4.5243,4.5254,4.5263,4.5296,4.5307,4.5165,4.5165,4.5165,0,4.4812,4.4867,4.4859,4.4902,4.4921,4.4896,4.4945,4.496,4.4992,4.5005,4.4984,4.5054,4.5067,4.5132,4.5154,4.5168,4.5181,4.5156,4.5253,4.5262,4.5271,4.5302,4.5314,4.5168,4.5168,4.5167,4.5167,0,4.4917,4.4956,4.4992,4.5023,4.5046,4.5092,4.509,4.5114,4.5105,4.5108,4.5162,4.5176,4.521,4.5224,4.5216,4.5289,4.5277,4.5254,4.5216,4.5287,4.5316,4.5328,4.5173,4.5172,4.5171,4.517,0,0,4.503,4.5056,4.507,4.5084,4.5107,4.5136,4.518,4.5213,4.5234,4.5256,4.5293,4.5342,4.5321,4.5339,4.5332,4.5364,4.5435,4.5337,4.5338,4.5355,4.5516,4.5534,4.5548,4.5423,4.5425,4.5427,4.5515,0,4.5115,4.5193,4.5187,4.526,4.5296,4.5273,4.5312,4.533,4.5334,4.5365,4.5368,4.5403,4.5373,4.5384,4.5414,4.542,4.5467,4.5413,4.5457,4.5459,4.5454,4.5563,4.5581,4.5664,4.5526,4.5528,4.5529,0,4.5226,4.5252,4.5329,4.5347,4.5362,4.5397,4.5427,4.5456,4.5476,4.5476,4.5496,4.5484,4.5528,4.5488,4.5549,4.5513,4.553,4.5536,4.5539,4.5544,4.5499,4.5571,4.569,4.5702,4.5547,4.5545,4.5544,0,4.5301,4.5356,4.541,4.5422,4.5444,4.5469,4.5479,4.5497,4.5517,4.5543,4.5556,4.5586,4.5603,4.5626,4.5623,4.5594,4.5685,4.5644,4.5687,4.5687,4.5708,4.5707,4.5832,4.5718,4.5718,4.5717,4.5717,0,4.5398,4.5446,4.5444,4.5477,4.553,4.5522,4.5575,4.5582,4.5598,4.5632,4.5613,4.5645,4.5638,4.567,4.5667,4.5718,4.5725,4.5727,4.5726,4.5729,4.5729,4.5741,4.5736,4.5721,4.572,4.5719,4.5719,0,4.5492,4.5492,4.5549,4.5565,4.557,4.5609,4.5622,4.5653,4.5655,4.5698,4.5708,4.5711,4.5748,4.5746,4.5787,4.5785,4.5848,4.584,4.5842,4.584,4.5883,4.5879,4.6021,4.6039,4.5913,4.5914,4.5915,0,4.5555,4.5591,4.5611,4.5633,4.5645,4.5679,4.57,4.5693,4.5715,4.5741,4.5769,4.5803,4.5831,4.589,4.5895,4.5927,4.5919,4.5967,4.5924,4.5926,4.5921,4.5919,4.5923,4.5976,4.5977,4.5978,4.5979,0,4.5665,4.5664,4.5694,4.5725,4.575,4.5774,4.5796,4.5814,4.581,4.5835,4.5873,4.5894,4.5936,4.597,4.6,4.601,4.5994,4.5992,4.6004,4.6008,4.6009,4.601,4.5866,4.5989,4.5988,4.5988,4.5987,4.5987,4.5746,4.5778,4.5797,4.5831,4.5847,4.5868,4.5898,4.5904,4.5935,4.5969,4.5962,4.6004,4.6023,4.6061,4.6074,4.6106,4.6089,4.6106,4.611,4.6115,4.612,4.6003,4.6111,4.6111,4.6111,4.6111,4.611,0,4.5857,4.5868,4.59,4.5931,4.5958,4.5941,4.5964,4.5988,4.6025,4.6043,4.6071,4.6114,4.6147,4.6156,4.6188,4.6212,4.6205,4.6221,4.6219,4.6222,4.6133,4.612,4.6225,4.6225,4.6225,4.6225,4.6225,4.6225,4.5918,4.597,4.5971,4.6031,4.6042,4.6083,4.6097,4.6116,4.6131,4.618,4.6208,4.6213,4.6228,4.6261,4.6291,4.6292,4.6305,4.6324,4.6323,4.624,4.6228,4.6217,4.6205,4.6326,4.6327,4.6409,4.641,4.641]}]]